Regional Weather Roundup
Issued by NWS Goodland, KS

Home | Current Version | Previous Version | Graphics & Text | Print | Product List | Glossary On
Versions: 1 2 3 4 5 6 7 8 9 10 11 12 13 14 15 16 17 18 19 20 21 22 23 24 25 26 27 28 29 30 31 32 33 34 35 36 37 38 39 40 41 42 43 44 45 46 47 48 49 50
000
ASUS43 KGLD 202059
RWRGLD

GOODLAND FORECAST AREA HOURLY WEATHER ROUNDUP
NATIONAL WEATHER SERVICE GOODLAND KS
200 PM MST SAT JAN 20 2018

...OFFICIAL OBSERVATIONS...

CITY           SKY/WX    TMP DP  RH WIND       PRES   REMARKS
GOODLAND KS    SUNNY     50  28  42 N12       29.71F
HILL CITY KS   SUNNY     51  26  37 E8        29.72F
IMPERIAL NEB   PTSUNNY   49  30  48 NE16      29.74F
MCCOOK NEB     MOSUNNY   50  32  50 NE13      29.74S
AKRON CO       CLOUDY    42  29  59 NE13      29.73S
BURLINGTON CO  MOSUNNY   50  29  44 NE9G20    29.71F
LIMON CO       CLOUDY    58  20  22 NE14G21   29.69S
$$

...UNOFFICIAL OBSERVATIONS...

CITY           SKY/WX    TMP DP  RH WIND       PRES   REMARKS
NORTON KS      SUNNY     48  25  40 N9        29.73
SHARON SPRINGS   N/A     56  29  36 CALM        N/A
KIT CARSON CO    N/A     65  26  23 MISG        N/A
$$




USA.gov is the U.S. government's official web portal to all federal, state and local government web resources and services.